Weather History for KPOF - May, 2013

Change the Weather History Date:

Monday, May 27, 2013

  Actual Average (KCGI) Record (KCGI)
Temperature  
Mean Temperature 74 °F 70 °F  
Max Temperature 86 °F 81 °F 95 °F (2012)
Min Temperature 62 °F 59 °F 36 °F (1961)
Degree Days  
Heating Degree Days 0 1  
Month to date heating degree days 65  
Since 1 July heating degree days 4383  
Cooling Degree Days 9 6  
Month to date cooling degree days 96  
Year to date cooling degree days 127  
Growing Degree Days 24 (Base 50)    
Moisture  
Dew Point 62 °F    
Average Humidity 64    
Maximum Humidity 84    
Minimum Humidity 51    
Precipitation  
Precipitation 0.00 in 0.15 in 4.21 in (1973)
Month to date precipitation 4.88  
Year to date precipitation 20.52  
Sea Level Pressure  
Sea Level Pressure 29.97 in    
Wind  
Wind Speed 6 mph (South)    
Max Wind Speed 17 mph    
Max Gust Speed 29 mph    
Visibility 10 miles    
Events      
T = Trace of Precipitation, MM = Missing Value Source: NWS Daily Summary

Daily Weather History Graph

Daily Weather History Graph

Search for Another Location

Airport or City:

Trip Planner

Search our weather history database for the weather conditions in past years. The results will help you decide how hot, cold, wet, or windy it might be!

Date:

Astronomy

May. 27, 2013 Rise Set
Actual Time 5:45 AM CDT 8:11 PM CDT
Civil Twilight 5:15 AM CDT 8:41 PM CDT
Nautical Twilight 4:39 AM CDT 9:18 PM CDT
Astronomical Twilight 3:58 AM CDT 9:59 PM CDT
Moon 10:52 PM CDT (5/27) 8:22 AM CDT (5/27)
Length of Visible Light 15h 25m
Length of Day
14h 25m
Waning Gibbous, 91% of the Moon is Illuminated
May 27
Waning Gibbous
May 31
Last Quarter
Jun 8
New
Jun 16
First Quarter
Jun 23
Full

Hourly Weather History & Observations

Time (CDT) Temp. Heat Index Dew Point Humidity Pressure Visibility Wind Dir Wind Speed Gust Speed Precip Events Conditions
12:53 AM 70.0 °F - 53.1 °F 55% 30.04 in 10.0 mi Calm Calm - N/A   Clear
1:53 AM 66.0 °F - 55.9 °F 70% 30.03 in 10.0 mi Calm Calm - N/A   Clear
2:53 AM 63.0 °F - 57.9 °F 84% 30.04 in 10.0 mi Calm Calm - N/A   Clear
3:53 AM 63.0 °F - 57.9 °F 84% 30.03 in 10.0 mi Calm Calm - N/A   Clear
4:53 AM 63.0 °F - 57.0 °F 81% 30.04 in 10.0 mi Calm Calm - N/A   Clear
5:53 AM 62.1 °F - 57.0 °F 84% 30.05 in 10.0 mi SE 3.5 mph - N/A   Clear
6:53 AM 66.9 °F - 60.1 °F 79% 30.02 in 10.0 mi South 3.5 mph - N/A   Clear
7:53 AM 71.1 °F - 62.1 °F 73% 30.02 in 10.0 mi South 6.9 mph - N/A   Clear
8:53 AM 75.9 °F - 64.0 °F 67% 30.01 in 10.0 mi South 15.0 mph 20.7 mph N/A   Clear
9:53 AM 79.0 °F - 64.0 °F 60% 30.00 in 10.0 mi South 13.8 mph - N/A   Clear
10:53 AM 80.1 °F 81.7 °F 64.0 °F 58% 29.99 in 10.0 mi SSW 12.7 mph 19.6 mph N/A   Overcast
11:53 AM 82.0 °F 84.1 °F 66.0 °F 58% 29.97 in 10.0 mi SSW 15.0 mph 21.9 mph N/A   Scattered Clouds
12:53 PM 82.9 °F 85.4 °F 66.9 °F 58% 29.98 in 10.0 mi South 12.7 mph 23.0 mph N/A   Mostly Cloudy
1:53 PM 84.9 °F 87.6 °F 66.9 °F 55% 29.96 in 10.0 mi SSW 17.3 mph 25.3 mph N/A   Mostly Cloudy
2:53 PM 86.0 °F 88.2 °F 66.0 °F 51% 29.94 in 10.0 mi SSW 17.3 mph 28.8 mph N/A   Mostly Cloudy
3:53 PM 84.0 °F 85.8 °F 64.9 °F 53% 29.92 in 10.0 mi South 13.8 mph 19.6 mph N/A   Partly Cloudy
4:53 PM 82.9 °F 84.6 °F 64.9 °F 54% 29.93 in 10.0 mi SSW 15.0 mph - N/A   Mostly Cloudy
5:53 PM 82.9 °F 85.0 °F 66.0 °F 56% 29.92 in 10.0 mi South 12.7 mph - N/A   Mostly Cloudy
6:53 PM 82.0 °F 84.1 °F 66.0 °F 58% 29.90 in 10.0 mi South 13.8 mph 19.6 mph N/A   Partly Cloudy
7:53 PM 81.0 °F 83.0 °F 66.0 °F 60% 29.88 in 10.0 mi South 11.5 mph - N/A   Clear
8:53 PM 80.1 °F 81.9 °F 64.9 °F 60% 29.88 in 10.0 mi South 10.4 mph - N/A   Clear
9:53 PM 78.1 °F - 64.0 °F 62% 29.87 in 10.0 mi South 10.4 mph - N/A   Clear
10:53 PM 77.0 °F - 59.0 °F 54% 29.86 in 10.0 mi South 11.5 mph 21.9 mph N/A   Clear
11:53 PM 75.9 °F - 60.1 °F 58% 29.90 in 10.0 mi South 8.1 mph - N/A   Clear